Theta_e
351 352 353 352 353 348 342 340 320 327 327 320 322 323 321 335 333 332 331 336 330 337 343 343 339 340 338 334 335 338 338 333 332 325 322 339 355 354 357 356 358 358 358 358 359 359 359 357 357 358 358 360 359 359 357 357 357 355 355 353 360 364 364 365 364 365 366 366 365 364 364 364 363 362 362 362 362 362 362 362 362 357 357 358 356 358 361 361 361 360 360 362 362 362 362 362 362
348 351 351 349 346 345 333 340 324 324 322 319 320 326 327 332 334 330 330 331 336 338 340 340 341 342 342 340 336 337 335 339 341 340 344 348 354 356 358 355 357 355 358 359 360 360 359 358 356 357 359 359 357 356 356 356 355 353 358 363 364 364 365 365 363 363 363 364 364 363 363 362 362 362 362 362 362 362 363 362 356 358 357 356 358 359 359 360 360 360 361 362 362 361 362 362 363
349 349 348 348 349 342 345 337 318 321 318 313 321 324 332 330 328 332 333 339 342 343 341 341 341 341 339 340 334 332 329 343 344 345 343 351 345 351 357 358 356 358 356 357 360 360 360 358 355 356 356 357 357 357 357 357 359 362 364 363 364 365 364 364 363 362 362 361 361 362 362 361 360 361 362 362 362 362 362 361 360 353 355 357 359 359 359 359 359 360 359 360 361 361 361 361 362
356 350 347 347 338 346 330 330 323 321 315 317 318 329 331 331 330 336 340 342 342 341 342 339 337 342 339 333 334 339 336 340 347 345 342 350 348 352 354 358 359 356 357 360 361 360 360 357 354 355 356 357 356 358 362 362 364 364 365 364 364 363 362 362 361 360 360 360 360 359 360 360 361 362 362 360 360 359 359 361 358 358 359 358 356 358 358 359 359 359 360 359 360 361 361 361 362
354 350 352 347 342 328 329 325 326 324 316 320 318 329 331 333 334 338 340 342 342 341 340 339 339 345 344 339 341 334 336 343 345 346 349 351 357 357 357 357 355 358 356 358 358 360 360 357 357 356 357 360 361 364 363 364 363 363 363 361 362 362 361 360 360 359 359 360 359 359 359 359 361 360 360 361 360 359 360 360 359 359 358 355 356 356 355 358 359 359 360 361 361 361 360 360 361
354 350 353 349 335 348 334 322 322 323 325 327 326 325 334 337 337 339 337 341 342 342 342 342 337 336 338 340 341 337 344 336 344 346 350 350 354 359 358 358 355 357 358 361 363 358 361 361 361 361 363 364 364 363 364 363 362 361 361 361 360 361 360 359 359 359 360 359 358 360 359 361 360 360 360 361 360 359 360 360 359 358 357 356 355 357 357 359 360 359 361 361 359 359 360 359 361
346 347 347 347 341 343 323 323 321 325 329 334 330 332 335 337 339 338 336 337 341 341 341 338 340 337 334 340 343 346 349 348 347 347 353 353 356 356 357 357 356 357 358 358 362 361 362 365 365 365 364 364 362 363 362 362 361 361 360 360 360 360 359 358 359 360 359 359 359 360 360 361 361 361 360 360 360 360 360 360 359 360 359 357 356 357 357 357 360 360 360 360 360 359 360 360 359
355 346 344 334 331 332 326 323 324 326 328 335 335 334 336 340 342 339 336 336 334 336 338 340 342 338 336 344 334 344 349 352 351 353 354 355 355 354 356 357 356 357 359 362 360 362 368 365 365 364 365 363 363 362 361 361 360 359 359 360 359 359 360 361 359 360 361 360 361 360 361 361 361 361 360 361 361 360 360 360 360 359 358 357 357 359 359 360 361 361 361 360 360 360 360 360 360
350 344 346 333 326 331 325 323 325 333 331 338 338 343 342 340 342 339 336 338 337 340 336 337 338 334 335 339 338 345 347 351 353 354 353 353 351 352 354 356 356 355 359 360 358 359 363 365 365 364 363 363 361 362 360 359 359 359 359 359 359 359 359 360 359 359 360 361 361 362 361 360 360 360 360 361 360 361 361 361 360 360 361 358 357 358 359 360 360 360 360 361 361 360 360 360 360
352 345 336 333 330 320 324 323 325 325 331 337 336 339 341 344 342 343 338 336 337 337 338 341 342 335 339 333 338 343 346 352 353 352 352 351 352 352 352 352 356 355 355 356 357 357 361 369 364 364 364 362 361 360 360 359 359 358 359 358 358 358 358 360 361 361 361 360 361 361 360 361 361 360 360 360 362 362 361 361 361 361 361 359 359 360 360 360 359 359 359 361 361 360 360 360 360
336 343 344 327 325 320 320 320 326 329 331 337 338 341 342 344 344 338 341 337 338 335 338 342 337 337 340 338 339 349 352 352 350 348 351 351 353 352 351 353 354 355 353 353 355 358 361 364 367 365 365 362 360 360 359 358 359 358 358 358 359 360 360 360 361 361 361 361 361 361 361 361 360 360 360 360 362 362 361 361 361 362 362 361 360 359 361 360 359 359 360 361 361 361 360 360 360
333 334 337 325 322 322 324 323 327 328 333 336 334 339 341 342 344 336 337 335 335 336 336 341 335 343 336 336 339 347 350 350 350 350 352 353 352 352 352 352 353 353 351 350 351 353 358 365 366 367 364 362 360 359 358 358 358 359 359 359 359 360 361 361 362 361 361 361 361 361 360 361 360 359 359 361 362 362 361 360 361 361 361 360 361 359 360 360 360 359 360 361 361 360 360 360 361
336 336 334 327 326 325 326 325 325 328 329 331 334 338 345 341 336 337 338 337 337 335 335 343 343 341 333 336 343 347 346 349 350 351 352 351 352 352 352 352 353 354 354 351 352 356 360 363 362 365 362 359 357 357 358 358 358 359 358 359 360 361 361 361 362 361 361 361 360 361 360 360 359 360 359 360 360 362 361 360 360 361 362 360 360 359 360 360 360 360 360 361 361 361 360 361 361
339 338 335 326 331 327 326 325 329 324 328 334 338 343 343 341 342 341 340 338 337 336 340 344 344 343 337 338 340 342 344 350 351 352 351 352 352 350 350 351 353 356 357 357 357 360 360 360 361 363 361 355 355 357 357 358 358 359 360 360 361 361 361 361 361 360 360 361 361 361 360 361 361 361 360 360 361 362 361 361 361 361 361 360 359 360 360 359 360 361 361 360 359 360 360 360 361
338 344 336 332 326 327 327 325 327 325 326 335 340 341 341 343 344 344 342 337 338 343 345 349 345 337 329 333 334 340 345 349 351 350 350 351 351 350 350 351 354 356 357 356 357 361 357 359 361 364 360 357 355 358 360 360 360 360 360 361 361 361 361 361 361 361 361 361 360 361 360 360 360 361 361 361 362 362 361 360 360 360 360 360 360 360 359 359 360 361 361 360 360 360 361 362 361
344 341 337 328 323 324 325 326 328 325 326 335 340 343 342 343 346 341 344 348 339 345 344 339 346 339 335 335 339 344 348 350 350 350 350 349 349 349 349 350 354 356 358 358 357 358 361 360 363 363 362 360 360 362 361 361 360 361 361 361 361 361 361 360 360 361 361 361 361 361 360 360 360 361 362 360 362 361 360 360 360 360 359 358 358 358 359 360 360 360 361 360 360 361 361 362 362
347 344 333 326 323 325 327 327 329 322 331 338 340 342 334 338 347 347 351 353 341 339 341 343 340 345 339 339 344 347 348 350 350 350 348 348 348 346 348 349 353 355 355 356 356 359 362 362 361 363 360 361 361 363 361 360 360 361 362 361 361 360 359 359 359 360 361 361 362 362 360 363 363 362 359 361 360 363 361 361 360 359 358 358 357 357 358 359 360 360 360 360 361 362 362 362 362
345 334 329 324 325 323 331 327 331 334 332 336 340 341 338 335 342 344 349 343 344 345 342 342 344 344 343 345 347 348 348 348 348 346 345 345 346 344 344 346 349 351 351 353 354 358 363 363 362 360 359 361 361 361 364 362 361 362 366 363 361 359 358 358 361 364 363 363 361 363 366 365 364 365 362 361 363 363 362 361 359 358 358 358 358 359 360 361 362 361 360 361 362 362 361 360 362
338 333 328 323 327 328 333 334 335 335 333 340 342 342 339 337 341 343 340 339 342 340 339 341 341 342 343 344 346 346 347 347 346 344 343 343 343 342 342 345 346 349 349 350 351 354 363 363 363 361 359 361 364 361 359 364 362 360 362 365 361 360 360 360 361 363 366 364 364 363 364 364 364 366 361 360 363 361 361 360 359 357 357 359 359 360 362 363 364 363 364 363 363 361 361 360 360
339 333 325 330 331 332 334 336 337 340 339 339 339 341 342 340 340 342 338 337 341 337 335 338 337 337 339 342 344 344 346 345 345 344 341 341 342 342 343 342 344 347 348 347 350 356 361 362 363 362 362 362 362 361 360 361 365 368 365 360 361 361 357 354 361 363 364 363 361 360 362 362 362 362 361 362 360 360 361 361 360 358 358 360 361 362 362 362 363 363 363 362 359 362 364 359 361
340 332 327 331 334 330 332 336 338 339 343 339 339 342 339 339 341 342 340 336 337 340 339 339 337 338 339 340 342 342 343 343 343 342 340 340 341 341 341 342 343 346 347 347 351 355 360 362 363 364 366 364 362 362 362 361 362 362 363 362 366 364 361 358 360 360 361 362 362 360 359 361 360 364 364 364 363 361 362 359 356 359 360 362 361 362 362 363 362 363 361 360 363 362 358 355 359
336 331 333 333 335 329 332 333 336 338 341 340 340 336 335 343 342 340 339 333 333 338 340 342 342 342 340 339 340 341 341 340 341 340 339 339 339 340 341 344 345 347 347 346 350 355 360 362 363 364 365 365 365 360 361 359 360 358 359 362 359 358 356 360 360 359 361 361 357 360 362 360 362 366 366 364 362 361 360 363 361 359 358 358 360 361 358 364 360 360 363 359 361 360 359 358 355
328 333 334 334 333 331 332 330 331 335 338 336 336 337 340 341 337 338 340 338 337 344 343 344 344 342 342 342 341 339 339 340 340 339 339 338 339 340 341 343 343 343 343 346 352 355 360 362 364 363 363 363 359 363 362 358 359 361 359 361 361 357 356 357 358 357 358 357 356 360 360 360 360 361 361 359 361 360 358 359 358 361 362 361 359 359 359 357 359 361 360 357 357 355 358 357 358
332 326 333 333 333 331 331 329 330 333 337 338 340 341 340 337 334 341 339 339 343 343 344 344 344 343 343 340 339 338 339 340 339 339 338 338 339 339 342 342 343 344 344 347 351 353 359 359 362 364 365 364 364 365 364 358 358 358 355 363 360 365 367 356 357 361 362 359 361 360 364 365 366 362 362 365 360 360 361 362 364 360 359 356 354 357 356 356 362 358 360 357 356 359 356 355 353
331 329 333 333 333 332 331 328 329 330 336 342 340 338 339 338 341 339 337 339 342 343 344 344 344 342 342 341 339 339 339 339 338 338 339 339 340 341 342 343 343 342 343 347 350 353 356 359 361 361 360 362 364 364 362 361 361 360 358 360 360 363 358 358 359 361 361 360 359 358 360 358 360 358 357 359 359 361 361 361 357 356 358 356 358 356 358 361 360 359 362 359 359 358 357 357 354
331 332 334 333 331 330 330 328 328 330 337 341 339 337 339 341 340 336 338 340 342 343 343 343 342 341 341 340 339 339 339 338 338 338 339 339 339 339 340 341 341 339 344 348 349 352 356 357 357 358 357 359 360 360 362 361 361 361 362 362 362 362 360 362 364 360 361 362 362 363 364 365 360 356 358 359 359 360 358 358 358 357 357 358 356 356 358 358 358 360 359 361 353 357 359 359 357
332 332 332 330 329 329 330 326 328 331 337 338 337 337 337 341 340 333 338 341 343 342 341 342 341 339 340 340 339 339 339 338 338 338 339 340 339 339 340 339 339 341 345 347 348 353 356 354 354 357 356 359 358 359 360 362 364 364 364 362 364 363 362 364 362 363 359 360 366 369 368 364 359 360 360 361 360 357 357 359 357 357 358 357 360 359 359 361 359 359 359 357 359 359 358 357 356
329 331 329 328 329 330 329 328 326 332 334 338 341 336 338 338 337 333 339 342 342 340 339 339 340 341 339 339 339 340 340 340 341 338 337 337 337 338 338 339 338 341 344 346 349 354 354 351 352 355 356 358 359 359 362 361 364 363 364 364 362 363 365 362 361 362 361 360 365 369 368 365 363 364 364 361 361 357 355 356 358 361 359 360 361 359 360 361 360 363 364 362 362 360 359 358 360
328 328 323 326 329 327 328 326 327 333 332 340 341 335 333 334 331 338 341 342 342 340 338 338 339 340 339 340 339 339 339 340 340 338 338 339 339 339 338 339 338 340 344 346 349 352 351 351 352 354 355 358 358 356 358 359 362 361 363 364 363 360 363 363 361 362 365 367 370 371 370 368 368 365 364 363 359 358 356 358 360 360 361 363 365 365 363 362 360 361 362 363 359 359 357 356 354
326 327 325 325 325 324 327 328 329 333 335 339 337 319 325 331 335 338 340 340 341 339 338 339 340 340 340 340 339 339 340 341 338 339 340 340 339 338 338 339 340 342 343 347 349 350 351 351 352 353 356 357 357 356 359 359 361 361 363 361 363 363 361 361 361 363 364 364 366 368 370 370 367 366 366 364 360 356 358 358 358 359 364 363 362 365 361 360 359 360 358 358 357 357 354 355 352
318 324 327 321 319 318 326 327 328 331 335 339 333 322 325 331 335 339 341 341 339 337 338 339 339 340 339 338 338 338 340 342 339 340 339 341 339 338 338 338 341 344 345 346 347 349 350 351 351 351 354 355 356 358 357 360 360 360 361 363 361 361 361 359 359 361 364 363 364 365 368 371 373 369 366 365 362 358 357 356 357 361 363 364 362 366 361 361 360 359 357 356 357 356 355 356 355
318 317 317 322 318 319 324 329 327 329 332 335 334 325 322 329 334 340 342 341 342 338 338 339 340 340 338 339 338 337 338 339 340 340 339 340 339 339 337 338 341 343 345 346 346 348 348 351 351 351 352 353 357 358 361 362 361 361 362 361 364 362 358 357 360 362 363 362 363 367 371 371 373 374 369 367 363 360 357 359 359 363 365 366 364 365 363 361 362 359 357 353 352 352 356 355 357
317 315 317 316 318 319 320 325 329 330 330 335 331 321 330 327 336 340 342 338 337 338 338 339 340 341 339 339 338 337 337 338 339 339 340 340 341 340 338 338 340 344 344 344 347 348 349 351 351 349 350 350 357 358 361 362 363 362 362 361 359 361 357 358 368 361 363 364 361 362 368 367 373 374 373 369 367 362 360 361 360 363 365 365 363 363 360 359 361 358 361 360 359 358 351 350 353
312 316 316 318 317 318 316 325 328 331 330 326 331 324 328 331 333 336 339 340 342 338 336 338 340 341 342 341 339 337 337 337 337 339 339 340 341 341 339 343 340 344 345 345 347 349 349 351 350 350 353 351 357 359 361 361 362 365 362 362 364 361 359 360 360 361 361 360 362 365 368 367 368 376 376 370 368 364 363 362 361 362 364 363 364 364 362 362 361 359 360 362 360 360 353 351 352
311 313 314 316 318 318 317 317 324 327 329 326 326 324 325 330 332 334 338 339 338 337 338 339 339 341 341 341 340 339 337 337 337 341 340 341 341 341 340 341 340 344 343 345 346 350 351 351 351 353 352 353 356 360 362 361 362 364 361 362 363 362 363 369 360 359 359 360 359 366 369 367 369 372 373 372 368 362 363 363 364 363 364 363 363 362 361 362 361 359 357 361 365 361 356 357 357
314 315 314 316 314 316 315 319 326 326 322 325 325 323 325 328 331 334 336 340 337 338 340 339 338 341 341 341 340 339 339 337 340 341 342 341 342 341 340 342 340 343 341 346 347 349 351 352 352 355 355 353 357 360 361 357 358 358 356 358 358 361 363 360 362 360 359 360 361 364 369 368 368 372 372 372 368 364 363 362 364 362 363 363 359 360 357 359 362 362 360 358 360 359 361 360 359
317 317 315 315 315 315 318 318 321 325 322 322 324 325 326 327 329 331 337 340 338 337 336 337 339 340 339 340 340 340 340 337 340 342 342 342 342 341 341 341 340 342 342 346 346 349 351 351 354 355 355 356 357 357 357 354 353 354 356 355 355 359 362 363 359 357 359 362 362 365 368 367 370 370 370 367 367 364 364 365 364 364 362 361 360 360 362 360 363 363 363 364 359 356 357 357 356
317 316 315 314 315 313 316 316 319 321 319 319 324 326 324 325 328 333 334 336 337 335 337 338 341 338 340 341 341 341 340 342 342 341 342 342 341 341 342 340 342 339 342 345 347 350 352 353 354 355 355 355 356 356 354 354 356 353 354 355 356 355 360 360 359 357 367 361 368 368 368 368 369 367 367 366 366 364 363 362 364 362 361 362 362 366 366 363 362 363 359 360 362 358 356 355 351
317 315 316 314 314 316 318 317 318 320 318 317 320 320 323 326 333 333 333 331 334 337 340 339 341 340 339 339 341 342 341 341 340 341 342 341 343 341 342 340 340 340 342 343 347 350 352 353 356 357 355 355 355 356 355 356 357 357 356 356 357 356 363 362 362 358 363 360 365 366 369 370 369 365 366 365 365 363 363 363 362 362 362 362 362 363 363 362 362 363 362 357 354 359 358 357 355
315 314 313 311 315 312 309 316 317 318 317 316 318 316 319 326 328 329 333 329 329 335 337 336 347 343 340 341 340 341 341 341 340 341 341 342 342 341 342 340 341 340 342 343 346 348 350 354 357 357 357 356 355 358 358 358 358 360 361 361 361 360 360 362 364 363 363 362 361 362 366 369 366 364 362 362 364 366 365 363 361 361 364 365 364 363 361 362 364 363 359 362 361 352 350 349 356
315 314 313 312 313 314 313 313 316 318 319 319 316 314 315 318 322 325 329 329 328 331 334 336 340 342 343 340 344 342 342 342 341 341 342 342 342 341 342 342 341 340 340 344 344 347 346 352 357 359 358 356 356 359 359 360 360 359 361 363 363 363 362 362 361 358 362 363 361 361 359 363 365 365 362 363 364 366 366 365 364 364 364 365 367 363 362 361 361 361 363 362 359 352 345 346 350
311 314 314 314 314 314 315 315 313 312 312 316 314 308 309 316 316 319 323 325 326 329 330 333 337 342 341 340 340 344 344 345 344 343 342 342 341 342 344 344 341 341 341 343 343 345 348 351 358 361 359 358 356 361 362 361 359 358 357 357 356 357 357 357 356 355 356 354 356 359 361 362 364 366 365 365 364 363 364 365 366 365 365 363 364 363 362 363 361 362 362 363 357 360 358 346 346
307 309 314 315 315 315 314 313 312 308 306 313 317 307 305 315 315 319 324 322 326 331 332 333 336 338 340 340 344 342 341 343 346 344 343 342 342 342 344 344 342 342 344 344 343 345 348 351 359 360 360 359 358 363 363 362 361 360 358 356 354 354 354 360 360 360 357 354 360 359 362 364 365 365 365 367 366 365 366 366 368 366 364 365 366 369 366 364 360 363 362 362 360 362 357 351 346
307 314 314 314 315 313 314 314 313 311 315 315 316 313 308 308 315 323 328 327 329 327 328 332 332 338 339 341 340 343 344 345 346 344 344 344 343 343 344 345 343 343 345 346 345 345 349 353 358 360 360 359 360 363 363 363 362 360 358 355 353 353 352 358 362 360 359 361 359 360 361 362 365 366 364 367 368 367 367 366 368 369 366 367 364 364 363 362 362 363 364 362 363 361 359 353 350
312 315 316 313 315 315 315 314 313 312 311 307 310 313 309 307 319 324 325 321 323 327 327 330 336 333 337 342 342 344 343 346 345 344 344 344 344 344 346 346 346 345 345 346 346 349 350 354 358 360 360 361 361 365 364 361 363 359 357 355 354 354 354 361 363 364 362 363 362 363 362 362 363 368 366 368 368 368 369 368 368 370 368 367 365 365 362 364 365 361 362 362 361 361 360 356 355
315 317 317 315 315 315 315 312 311 311 309 305 310 311 305 308 317 319 323 320 322 323 327 330 333 336 336 338 338 341 344 344 345 344 345 347 346 346 348 349 347 345 346 348 348 349 352 356 359 359 359 360 362 365 366 363 362 360 358 357 357 355 355 359 360 361 363 363 363 366 367 365 362 364 368 369 371 369 369 369 366 367 370 368 363 364 364 366 366 364 364 362 363 360 358 356 352
317 316 314 313 312 311 312 311 311 309 303 306 310 312 310 304 313 319 319 320 326 326 329 330 332 335 339 340 337 341 342 344 343 346 346 345 348 348 349 348 349 347 349 348 347 348 352 356 359 360 359 358 361 365 367 365 363 361 359 359 358 358 357 357 359 360 365 361 364 363 365 366 364 360 363 367 368 370 369 370 365 366 367 370 366 371 368 362 362 362 363 363 362 360 357 356 354
315 312 310 310 308 310 309 307 310 302 301 308 311 311 314 303 312 319 323 325 326 327 326 328 331 333 336 338 340 341 341 342 344 346 348 346 348 349 348 349 349 349 349 349 348 347 351 356 360 361 361 360 360 363 366 363 361 361 362 361 360 360 359 356 358 363 363 361 361 363 364 363 365 364 363 362 359 365 370 369 368 366 368 369 367 372 369 366 363 362 360 363 363 362 361 359 357
313 311 310 303 300 302 298 302 298 299 300 308 311 311 308 310 315 318 322 324 326 328 328 329 332 333 336 338 341 342 342 342 343 346 346 348 346 346 348 349 350 351 350 350 349 348 351 356 360 361 361 362 362 364 363 360 361 360 361 361 361 361 360 359 358 358 360 361 359 363 365 365 362 364 362 361 359 362 368 369 369 368 368 370 370 370 371 371 368 364 363 362 361 362 362 361 357
310 308 306 302 299 297 294 298 301 302 306 311 310 312 306 314 317 321 321 324 326 327 330 331 332 334 336 339 341 342 343 346 349 349 347 347 347 347 349 348 350 350 349 349 350 351 351 353 359 361 363 363 365 365 364 360 359 360 361 361 362 362 360 360 358 356 357 359 360 361 362 360 361 361 362 363 361 361 362 367 371 371 373 373 375 376 374 371 371 369 368 364 359 362 362 362 361
308 312 308 305 305 299 295 298 296 298 302 306 310 306 307 306 312 322 322 325 327 328 329 332 333 334 337 338 340 343 342 340 347 345 344 344 347 348 349 349 349 350 350 350 350 351 353 353 359 362 364 364 365 365 365 363 360 360 360 360 361 362 359 359 358 357 357 356 356 358 361 359 359 362 361 364 367 365 364 366 363 369 373 376 374 371 373 374 372 369 369 367 364 360 362 361 359
309 310 311 307 305 309 300 303 302 302 301 301 305 305 312 313 321 324 325 325 326 327 327 330 331 331 335 336 337 339 341 342 344 346 346 347 349 345 349 350 351 351 352 351 351 352 352 354 360 362 364 366 365 365 365 365 363 361 363 362 360 362 363 359 360 360 359 357 358 356 359 361 359 359 361 362 362 365 365 366 366 364 373 372 375 373 372 371 372 367 368 368 364 360 361 362 360
306 307 303 307 313 310 305 307 307 306 303 300 309 308 314 318 320 321 323 322 323 325 326 326 328 331 333 333 335 338 340 341 342 344 345 349 346 349 348 350 348 349 349 350 353 354 355 356 359 363 365 366 365 366 365 366 365 363 364 363 360 360 359 358 355 358 355 358 359 357 355 357 359 362 360 362 363 365 365 364 365 362 365 372 374 372 373 372 376 369 369 369 364 361 363 361 358
307 302 306 313 314 312 307 300 304 301 297 301 306 306 307 309 306 320 318 318 320 322 324 325 327 329 329 331 334 336 338 339 340 343 346 350 350 348 348 350 349 349 350 351 353 354 355 357 360 361 363 364 364 365 363 365 365 363 364 364 363 360 356 356 354 355 356 356 356 359 355 356 356 358 360 357 361 362 365 365 366 365 364 365 367 367 370 371 377 367 368 371 367 367 364 363 362
307 306 311 305 300 301 306 303 297 297 296 300 304 307 307 309 310 314 314 315 317 320 323 324 324 326 327 329 332 335 338 338 339 339 342 346 347 347 350 352 353 352 353 355 354 354 354 356 358 357 359 362 362 361 361 364 365 361 362 364 363 360 357 356 355 357 357 355 353 354 354 354 355 357 361 362 362 360 363 365 366 364 365 364 365 367 371 370 375 368 365 365 366 369 369 365 365
311 311 308 311 308 304 302 304 307 304 297 299 300 305 304 312 312 314 314 317 318 320 321 322 323 325 326 328 329 331 334 337 337 337 338 342 346 346 349 350 349 350 352 354 354 353 353 354 356 358 359 361 362 360 362 363 363 361 359 365 365 364 361 357 356 356 353 354 354 352 353 351 354 354 356 359 360 359 360 361 361 360 358 360 362 363 361 368 373 367 365 363 365 366 366 366 364
304 305 305 306 306 310 308 308 305 302 300 300 299 299 305 312 316 315 315 317 318 320 320 322 323 325 326 328 328 330 332 335 337 337 338 341 346 348 349 351 347 349 349 351 351 352 350 354 354 356 358 359 360 359 360 364 362 362 362 364 364 364 361 357 355 355 354 355 355 356 353 352 355 354 355 356 359 359 360 359 358 359 357 360 362 362 363 366 367 367 367 365 366 367 365 365 365
305 304 303 306 303 302 300 300 307 305 302 298 299 297 308 314 319 317 318 319 319 321 321 321 323 324 326 328 328 329 330 333 335 337 338 339 343 345 347 349 350 346 348 349 348 349 350 350 355 355 354 356 355 354 359 362 364 363 361 362 362 364 363 359 355 354 354 353 355 356 356 355 352 355 356 354 359 358 359 358 357 358 360 357 362 365 360 361 364 365 365 361 363 368 369 365 364
Wind_Speed
10 10 10 11 10 5 5 4 4 4 4 4 2 3 3 4 7 10 7 8 8 1 5 9 12 7 5 8 12 10 11 8 8 3 8 9 12 14 17 18 16 15 14 13 13 12 12 12 14 15 15 16 16 16 14 13 14 14 11 14 17 10 10 10 11 13 14 14 13 12 12 12 13 12 11 12 11 11 10 11 13 18 18 14 11 13 11 12 14 14 13 12 12 12 12 12 12
9 9 9 7 6 5 5 6 4 4 3 3 1 1 6 6 9 9 10 6 6 7 9 11 9 11 9 11 12 12 14 14 14 13 14 13 14 14 18 19 18 17 14 12 12 12 11 11 12 15 15 16 17 16 13 12 14 13 19 13 10 10 11 13 14 14 13 12 12 12 12 11 11 11 10 10 10 10 10 11 14 17 19 13 10 12 11 11 12 13 11 10 11 12 12 11 11
10 8 6 5 4 4 2 4 2 1 3 6 3 5 5 7 12 10 7 10 11 11 12 12 11 9 11 6 10 8 12 15 19 20 14 21 15 11 18 17 17 17 17 12 12 13 10 11 13 15 15 14 12 12 11 12 16 16 11 9 9 11 12 12 13 14 12 11 10 11 12 11 11 11 11 10 9 10 11 11 18 16 12 14 12 10 10 11 10 11 12 12 12 11 11 11 11
6 6 5 5 5 5 3 2 3 2 1 3 7 2 5 11 10 9 9 12 13 12 11 12 8 0 4 13 13 15 14 11 15 19 14 12 13 16 18 18 20 17 14 12 12 12 11 12 12 12 13 13 11 13 17 15 11 9 8 10 10 11 12 13 14 13 11 10 10 11 11 11 12 11 11 10 10 9 9 10 14 14 14 15 11 9 9 11 9 9 12 13 13 10 9 11 11
12 7 3 5 3 3 2 2 3 2 2 1 7 5 8 9 12 10 11 12 12 11 11 12 10 9 11 12 8 7 9 15 15 15 12 16 18 17 19 21 20 17 13 13 14 13 12 17 15 14 15 16 17 15 13 13 11 9 10 10 10 11 12 13 12 12 11 10 10 11 11 11 11 11 12 12 10 10 10 10 12 14 16 15 13 7 7 10 10 10 11 12 13 12 11 10 11
11 5 6 4 4 2 4 3 3 4 3 4 7 7 10 10 11 12 13 12 12 11 11 8 10 11 11 13 9 11 11 9 13 12 15 17 22 19 19 16 16 19 17 13 14 13 15 21 20 20 19 17 15 16 14 13 13 12 11 11 11 12 13 12 12 12 10 9 10 11 10 12 11 12 12 13 11 10 11 12 12 16 17 14 14 9 7 9 11 9 10 11 12 13 11 8 9
6 6 5 5 7 3 3 1 2 6 4 4 10 8 12 12 13 14 13 12 10 12 11 10 13 15 11 9 13 9 10 14 11 15 12 19 21 20 18 15 19 18 19 14 10 14 19 18 18 18 17 16 17 15 13 13 13 12 12 11 11 12 12 12 12 12 10 8 10 10 11 11 12 12 13 13 12 11 11 12 13 16 16 15 16 13 9 8 11 10 9 11 12 12 12 10 9
5 8 3 5 3 3 3 2 6 6 3 5 9 10 11 8 11 12 13 11 11 8 14 11 7 12 14 10 11 11 12 9 15 18 21 18 19 19 17 14 17 18 14 14 17 14 19 19 18 17 17 17 16 15 12 11 13 13 12 11 11 12 13 12 12 11 11 9 9 10 11 11 11 12 13 13 13 11 11 12 14 16 16 15 14 14 11 10 10 11 11 10 11 10 10 9 10
7 8 5 4 5 2 0 2 8 9 7 5 11 9 11 12 8 12 12 9 11 10 13 11 11 10 6 14 12 11 12 14 17 20 20 20 19 18 13 15 15 19 16 15 16 16 16 18 17 16 16 18 16 14 11 8 9 11 12 12 12 11 11 11 11 11 10 10 9 10 11 12 11 12 12 12 13 13 12 12 13 14 14 15 14 13 13 13 11 11 13 13 13 11 11 10 9
4 6 4 4 4 1 3 5 6 4 8 8 11 8 6 6 10 7 12 12 11 12 12 10 10 16 15 16 13 11 11 16 18 18 18 18 17 16 16 17 15 18 18 15 16 15 14 18 17 16 16 19 15 12 10 9 10 12 12 11 11 10 9 10 11 10 9 9 10 10 11 13 12 12 11 12 13 14 14 13 14 16 15 14 14 14 14 13 12 11 12 13 14 13 11 8 8
4 6 5 5 2 3 2 8 9 8 7 7 9 7 6 6 8 8 9 12 10 10 12 12 15 16 13 13 11 11 16 17 18 18 18 17 16 16 15 15 15 14 16 17 16 15 14 14 18 15 17 20 16 12 9 7 10 12 10 10 11 10 9 9 11 11 11 10 10 11 12 12 12 11 11 12 13 14 13 13 14 15 15 14 14 14 13 13 13 12 12 13 13 13 12 10 9
5 3 3 4 6 4 3 7 9 9 9 8 8 2 6 6 7 12 12 12 11 11 12 8 11 14 15 13 10 12 16 17 17 17 17 16 14 15 15 12 14 14 15 17 17 15 14 14 12 15 18 19 14 12 10 10 11 11 10 10 11 10 9 10 11 11 11 10 10 11 12 13 12 12 11 12 13 13 12 13 13 14 15 14 14 13 13 13 12 13 13 13 12 12 12 10 9
8 8 2 4 5 6 6 7 7 11 7 5 6 2 4 7 4 10 8 10 10 12 8 6 15 11 13 12 10 14 16 17 16 17 16 14 14 13 13 13 14 14 14 15 15 15 15 13 13 12 19 19 11 10 11 10 10 11 10 10 9 10 10 10 11 11 10 10 11 11 12 13 13 12 11 12 13 13 12 13 14 15 14 14 13 12 13 12 13 13 14 14 13 12 12 10 9
6 5 6 5 9 8 1 4 7 7 6 8 5 6 6 1 6 10 8 10 9 6 12 12 9 14 15 14 12 13 14 16 17 16 14 15 13 13 15 13 14 14 14 14 14 13 13 12 13 14 17 11 9 9 10 10 10 10 11 10 10 11 11 10 10 11 11 11 11 11 12 13 13 13 12 12 13 13 13 13 13 14 13 13 13 12 12 13 13 14 14 14 13 12 11 11 9
6 5 5 3 7 6 4 3 6 7 8 9 7 9 7 1 5 8 6 12 6 5 11 9 11 9 11 15 13 13 16 19 17 16 15 15 14 14 15 13 13 13 12 14 14 12 12 12 13 14 14 12 11 8 8 8 12 11 10 11 11 11 10 11 10 10 11 11 12 12 11 13 14 14 13 11 13 13 13 13 13 13 14 12 12 12 11 12 13 14 14 14 13 12 10 10 8
5 6 3 4 4 4 4 10 5 8 6 10 11 10 8 9 4 6 2 0 8 8 9 11 8 2 15 13 17 19 20 19 17 16 15 15 14 14 13 13 11 12 11 11 11 10 11 12 11 10 12 13 11 10 10 10 10 11 11 11 11 12 12 9 9 10 10 11 11 12 11 11 12 12 14 10 13 12 11 11 11 11 14 14 12 12 12 12 13 14 13 13 13 11 10 9 9
6 6 4 1 4 6 7 4 4 6 9 8 12 10 10 7 5 5 2 3 10 8 4 9 7 11 11 15 20 21 20 18 17 18 16 12 11 11 11 10 9 9 8 10 9 9 9 12 13 8 11 12 12 10 10 9 10 12 12 12 12 13 11 9 10 10 10 10 11 11 9 7 9 9 9 9 11 9 10 11 10 9 12 13 12 12 12 13 13 12 11 10 11 11 10 10 9
4 2 5 2 1 3 3 7 6 6 10 12 8 9 9 10 8 8 7 7 7 7 8 8 9 10 14 21 21 20 20 19 18 18 16 14 11 11 11 10 9 9 10 8 9 11 9 9 13 15 9 10 13 9 7 8 9 9 9 9 7 9 11 9 5 7 7 8 9 6 4 5 6 7 7 9 8 9 9 9 9 10 11 11 10 10 10 11 11 11 10 10 11 12 12 7 7
5 1 1 2 1 9 7 7 14 6 9 9 11 11 1 7 9 10 7 8 10 10 9 9 12 15 20 21 22 20 19 18 18 17 17 16 13 14 11 11 10 10 9 8 8 11 8 9 9 12 15 10 10 13 7 7 10 9 8 7 7 7 7 5 3 4 6 5 4 4 5 4 5 6 7 7 7 10 10 9 7 6 8 9 10 8 8 9 10 9 10 10 8 7 4 4 6
6 1 2 4 5 7 8 8 8 14 10 10 10 8 8 10 9 5 5 10 10 9 10 13 14 19 20 21 21 20 19 18 18 17 17 15 13 13 13 12 11 10 9 9 9 8 8 8 9 10 11 14 10 7 10 8 6 7 8 9 7 6 6 5 3 5 4 4 5 4 3 5 6 6 10 13 13 9 8 11 11 6 6 8 8 6 7 6 7 7 6 6 4 3 2 1 1
8 1 3 2 3 3 6 7 9 6 10 8 10 10 8 7 7 9 7 10 8 7 9 14 17 19 20 21 22 20 19 18 16 16 16 15 14 11 11 11 11 9 9 9 9 8 8 9 9 9 9 10 11 6 7 7 6 6 5 5 4 5 7 9 7 5 5 5 6 6 7 5 6 6 7 7 7 8 7 9 10 4 4 5 6 4 3 5 3 2 2 1 1 1 2 1 4
4 2 9 5 2 3 3 8 7 8 8 11 10 10 5 10 9 8 2 7 5 7 12 14 16 18 21 22 20 19 19 19 17 16 16 16 15 14 11 11 12 10 9 9 9 9 9 9 9 9 9 7 9 11 7 9 9 6 5 6 8 8 3 4 4 6 5 4 4 3 4 5 4 4 5 5 4 7 7 6 5 7 7 4 1 2 2 1 2 1 1 1 2 2 7 5 7
4 8 15 6 1 1 3 5 4 4 8 9 8 4 8 8 13 9 7 4 7 9 13 16 16 19 19 19 20 20 19 18 17 16 15 15 15 14 13 11 11 10 8 9 9 8 9 10 9 9 9 8 3 9 11 11 6 7 7 6 8 8 12 8 9 8 10 8 5 2 5 5 6 4 4 6 5 4 8 10 11 8 5 6 4 1 4 1 3 2 2 3 3 7 6 6 4
6 6 4 3 2 4 1 5 4 5 6 7 6 12 11 10 13 7 8 8 10 12 15 16 17 18 19 19 19 19 18 17 17 16 16 15 14 14 13 12 10 9 8 11 9 9 8 10 10 9 7 9 9 8 7 9 11 11 9 6 5 4 3 8 9 6 5 8 10 5 5 4 6 5 5 3 6 6 5 5 5 8 12 11 13 12 11 6 6 6 4 6 6 4 5 6 5
8 7 5 1 5 1 4 2 3 3 7 7 12 7 8 7 6 14 4 9 12 14 16 17 18 19 17 18 18 19 17 17 16 16 13 13 13 13 13 11 12 10 9 10 9 9 9 10 10 9 9 8 7 7 8 6 6 7 12 7 7 7 8 4 7 7 7 9 13 10 7 5 6 7 7 6 3 5 4 4 5 5 5 6 7 4 9 7 4 5 6 6 3 3 5 4 4
9 8 2 4 5 3 2 5 4 5 6 7 7 8 9 8 14 8 10 13 12 14 17 18 19 19 18 18 17 17 17 16 16 15 13 12 13 14 13 12 11 11 10 10 9 9 9 10 10 10 9 8 7 7 6 6 6 6 6 7 5 6 6 6 7 5 6 6 6 7 8 6 4 6 6 4 5 4 4 4 5 5 5 5 6 7 8 7 5 2 4 2 6 3 4 3 4
2 5 5 6 5 5 4 6 6 4 8 8 8 12 7 8 8 3 9 13 13 15 18 18 18 18 17 16 16 16 16 16 16 14 13 12 13 13 12 13 12 11 10 9 10 9 8 10 10 9 9 8 7 6 6 7 6 6 6 6 5 6 6 5 4 5 7 7 6 7 5 5 5 5 5 4 4 4 4 4 5 5 4 4 4 5 7 7 3 3 2 2 3 4 3 4 4
5 6 6 8 7 8 4 5 3 6 9 4 7 4 10 11 7 4 10 12 13 16 17 18 17 16 15 17 16 15 14 14 12 14 15 15 12 11 13 10 12 13 12 10 9 9 9 10 10 10 9 7 6 8 6 7 6 6 7 5 6 6 5 5 5 5 6 6 7 7 4 4 5 5 5 4 4 4 5 5 4 4 5 4 4 5 5 6 5 4 4 4 4 3 4 3 3
6 6 9 9 9 9 8 8 7 9 5 11 3 6 12 3 6 5 9 13 14 15 18 18 17 16 16 16 15 14 14 14 13 12 13 12 12 12 13 12 11 11 10 10 10 9 10 10 9 9 9 7 7 8 7 6 6 6 5 5 6 5 5 5 5 6 6 6 6 6 6 5 4 4 4 4 4 4 5 4 5 4 4 4 5 6 5 5 5 5 4 3 2 4 3 4 3
8 8 9 8 9 8 9 5 8 11 7 6 8 3 6 5 3 4 9 11 13 15 16 16 15 15 15 15 14 14 14 14 14 12 12 12 12 13 13 13 12 10 9 9 11 10 8 8 8 7 9 8 7 8 6 6 6 6 5 6 5 5 5 5 5 6 6 6 6 6 5 4 5 4 4 4 4 5 5 4 5 4 4 5 5 4 3 2 4 3 4 3 2 3 4 3 3
10 9 9 8 7 6 10 8 8 14 7 6 6 4 5 4 6 5 10 13 13 15 16 15 15 15 15 15 15 15 15 13 14 13 14 13 13 12 13 13 12 12 9 9 11 11 9 8 7 8 9 9 7 8 6 6 6 6 5 5 5 4 5 6 5 6 5 6 6 6 5 5 4 4 4 3 3 4 5 5 4 4 4 3 4 2 2 4 4 4 2 4 2 1 4 1 1
10 10 11 9 8 6 9 7 9 9 9 8 4 1 7 6 6 9 11 8 8 15 15 16 16 14 16 15 16 15 15 15 15 15 14 14 13 12 13 13 12 12 11 10 11 10 10 9 8 10 9 10 7 7 6 5 5 6 5 5 4 5 4 6 5 5 6 6 6 5 5 4 3 4 3 2 3 3 4 4 4 5 4 3 3 2 2 4 3 2 5 4 1 2 3 3 4
11 12 7 9 7 6 8 10 9 18 8 9 2 4 4 7 9 9 6 11 13 13 16 15 16 17 16 15 15 15 16 15 15 15 15 13 12 11 12 13 11 12 11 11 11 10 10 10 8 11 10 10 10 8 7 6 5 5 5 5 6 3 4 8 2 2 5 4 5 6 5 4 3 3 3 2 1 3 4 4 5 5 3 3 3 2 2 5 1 3 2 2 2 1 2 4 2
11 11 9 9 11 8 6 8 9 17 14 8 6 4 5 3 3 6 10 9 15 15 15 16 14 15 15 15 15 15 16 15 15 15 16 14 12 12 13 12 12 12 11 12 12 10 10 10 7 9 9 10 9 8 7 6 6 5 4 4 5 4 4 6 9 5 3 4 5 5 5 4 4 3 3 2 1 2 3 3 5 4 3 3 3 1 2 2 3 4 3 2 1 2 1 3 2
10 10 11 10 12 10 4 7 9 10 10 15 7 4 5 4 5 10 12 13 10 11 12 14 15 14 15 15 14 16 15 16 15 14 17 14 15 13 13 13 13 11 11 12 12 11 8 9 7 8 9 10 9 8 7 6 6 5 4 6 6 4 3 5 2 4 7 5 5 6 4 5 4 4 3 2 2 3 3 4 4 4 4 2 2 3 3 3 1 4 4 3 1 2 1 3 4
14 14 13 9 10 11 10 5 9 9 9 9 13 8 10 7 10 13 19 21 16 10 7 7 12 12 12 14 15 14 15 16 14 15 16 14 13 13 13 12 12 11 11 11 12 12 10 9 8 8 8 9 9 8 7 7 6 5 6 6 6 5 3 6 5 5 3 2 6 6 5 5 5 4 3 3 3 3 3 4 4 4 3 3 3 2 4 3 2 2 2 4 3 2 1 2 3
8 13 14 11 11 11 12 7 7 8 7 11 12 11 9 16 16 8 12 8 14 12 10 7 7 9 13 13 14 15 16 16 16 16 16 15 15 13 13 13 13 12 12 11 12 13 11 11 9 9 8 9 8 7 7 7 7 6 6 6 6 6 5 5 4 6 7 1 6 5 6 5 5 5 4 4 4 3 3 4 4 3 3 3 2 2 1 4 3 3 2 1 2 0 3 1 2
9 11 13 13 13 10 8 8 7 9 8 8 7 20 17 13 9 16 7 7 10 12 17 14 12 10 6 13 14 15 15 14 18 16 17 16 14 16 13 12 13 14 12 12 12 12 11 12 10 9 8 9 8 8 7 7 7 6 6 6 6 6 6 5 5 4 0 9 6 6 5 6 6 5 5 5 4 4 4 4 4 4 3 3 2 2 3 3 3 3 4 3 3 0 1 1 4
12 9 7 11 11 11 12 4 3 6 11 5 11 10 13 14 15 13 10 8 4 9 7 7 15 7 7 12 13 14 15 16 17 17 17 16 17 17 13 13 13 14 14 13 12 12 12 11 10 9 9 8 9 9 8 7 7 6 6 6 5 6 5 5 6 6 10 6 7 7 5 6 6 5 6 5 4 5 4 4 5 4 4 3 3 3 4 4 4 3 4 3 2 3 1 2 2
10 9 8 10 10 12 10 10 7 8 9 8 10 10 9 16 11 12 13 14 10 7 5 4 6 17 11 10 14 14 16 16 18 18 19 18 17 16 14 14 13 14 13 13 13 13 11 10 11 10 9 9 8 8 8 7 7 6 5 5 5 5 5 4 4 3 3 7 7 7 6 6 6 6 7 6 5 4 5 5 4 4 5 4 4 4 4 4 4 3 4 2 2 3 2 2 3
11 12 11 10 13 14 7 6 10 6 10 9 5 9 10 13 14 11 16 13 14 14 13 10 8 3 8 3 10 11 16 13 17 19 18 18 17 17 15 14 14 14 14 13 14 13 10 12 12 12 10 9 9 9 9 8 7 7 4 5 5 4 6 4 5 5 4 5 6 7 8 7 7 6 7 6 6 5 5 4 4 4 4 5 4 4 4 5 4 5 2 2 2 2 3 1 1
10 14 14 12 11 16 17 4 5 8 10 12 9 4 5 7 11 12 11 10 9 8 7 9 9 5 6 6 5 6 5 13 14 18 18 18 17 17 16 16 15 14 14 14 14 14 13 12 12 12 9 9 9 10 9 8 7 7 6 6 6 6 5 6 5 6 7 6 6 7 8 7 7 6 6 6 6 6 6 5 5 5 5 5 4 4 4 3 4 4 5 3 3 1 1 2 3
10 11 14 12 12 18 15 12 10 9 9 12 12 9 5 6 7 6 5 8 14 9 9 11 8 5 3 6 6 8 10 11 12 14 17 18 18 18 18 16 16 15 14 14 13 14 13 14 13 12 10 9 10 10 11 8 8 8 8 8 7 6 6 5 4 4 4 7 6 9 7 7 7 6 7 6 6 6 6 6 5 5 5 5 4 3 4 5 5 4 4 2 1 2 1 1 1
9 5 19 13 8 6 13 14 10 8 9 8 11 10 6 6 2 8 10 13 11 6 2 2 10 10 7 11 11 9 8 10 9 9 12 16 18 18 18 18 16 15 15 14 14 14 14 14 14 13 10 10 9 10 11 9 9 8 9 8 7 6 6 5 6 5 5 2 6 7 6 7 6 6 6 6 6 6 6 6 6 5 5 6 5 5 4 4 3 3 3 3 1 1 1 1 2
1 4 3 12 11 6 8 8 8 9 10 10 11 14 6 7 6 11 9 6 4 8 5 2 1 6 12 12 13 9 11 9 10 8 14 17 18 18 17 17 16 16 16 15 14 14 13 14 14 13 12 11 10 12 12 11 9 9 8 8 7 6 6 6 6 5 4 4 5 6 6 7 6 5 6 6 6 6 6 6 6 5 5 5 5 4 5 4 4 4 4 3 3 2 2 1 0
8 4 1 5 8 9 11 9 10 12 12 12 9 12 10 7 7 6 6 10 7 4 3 8 5 3 5 7 11 11 9 12 12 13 14 13 17 17 17 17 17 15 15 15 15 14 14 13 14 15 13 11 11 12 12 12 11 9 9 8 8 7 6 6 6 5 6 5 5 6 4 6 6 6 6 6 6 7 6 6 6 6 5 5 5 5 4 5 5 5 5 4 4 4 2 2 3
3 5 7 5 5 10 10 10 9 9 13 11 11 16 8 7 2 6 7 6 3 3 5 3 2 7 8 6 10 10 10 11 9 4 12 16 16 16 17 17 16 15 14 15 15 15 15 14 15 15 14 12 12 13 12 13 11 10 9 9 9 9 8 7 6 8 6 6 6 6 6 5 6 6 7 7 7 7 7 6 6 6 5 4 4 3 4 5 6 6 5 5 5 4 3 3 2
8 6 9 9 8 8 8 10 10 11 11 12 14 17 18 10 10 5 6 6 6 4 6 5 4 2 6 6 8 11 11 9 9 13 14 10 10 15 14 16 16 16 14 15 15 14 15 14 15 16 15 14 13 13 13 12 12 11 10 10 10 9 9 7 7 8 7 8 7 6 5 6 5 6 6 7 7 8 6 6 5 5 4 4 4 3 4 4 5 6 6 5 5 5 4 2 2
11 8 9 9 8 9 9 9 13 12 10 11 16 14 15 6 5 8 8 6 7 7 6 6 6 4 2 6 7 7 7 9 9 2 0 4 8 10 14 16 16 15 14 15 15 15 15 15 16 16 16 15 13 13 14 13 12 12 10 10 10 8 9 8 8 8 8 7 7 6 6 5 6 5 6 6 7 8 7 6 5 5 4 4 4 3 3 3 2 3 4 6 5 6 5 5 4
11 11 10 10 9 10 9 11 8 8 11 11 14 18 7 13 9 6 9 6 6 7 8 6 6 6 3 4 7 7 7 1 3 2 3 7 9 11 14 13 13 14 16 15 15 14 13 14 16 16 16 15 14 13 14 13 13 12 11 10 9 9 9 9 8 8 8 7 7 7 7 6 6 7 6 6 6 7 7 7 6 5 5 4 4 4 4 4 3 3 4 5 6 5 5 6 5
13 12 11 10 9 8 10 10 12 12 10 12 15 17 10 10 7 10 9 9 7 6 7 5 5 7 6 7 11 9 7 3 3 3 5 7 6 14 9 10 12 13 15 15 14 13 13 14 15 16 16 15 15 15 13 14 12 12 11 11 10 9 9 9 8 7 8 8 8 8 7 7 7 6 6 6 5 6 7 7 7 6 6 6 5 5 4 4 4 4 3 5 5 6 5 5 6
12 12 11 12 12 8 9 9 10 10 12 12 12 4 7 8 10 10 8 9 9 7 9 10 7 7 6 7 7 9 9 6 6 6 5 8 8 14 9 7 8 10 12 13 14 13 14 13 15 17 16 16 15 15 13 13 13 12 12 12 12 10 9 9 8 8 7 8 8 8 8 7 6 7 6 7 7 6 6 6 7 7 7 7 6 6 6 5 5 4 4 4 5 5 6 6 5
11 12 13 10 8 10 10 10 12 11 10 12 8 10 11 11 9 10 10 8 8 8 9 8 8 9 9 7 6 6 6 5 5 4 6 8 11 13 7 8 9 9 11 12 12 13 13 13 15 16 16 15 15 15 14 13 13 12 13 13 12 12 12 12 11 11 11 9 8 9 8 9 8 7 7 7 8 7 7 7 7 8 7 7 7 7 6 5 5 5 5 4 5 5 5 6 5
7 13 12 11 4 10 7 9 11 14 12 10 14 14 12 12 9 8 9 8 11 8 9 10 9 9 7 8 8 7 7 8 7 5 4 8 8 7 7 12 10 12 13 12 13 14 12 13 15 16 16 17 16 15 15 13 13 13 13 13 13 13 12 13 11 11 11 9 9 8 8 8 9 8 7 7 7 8 7 7 7 6 7 8 7 8 7 7 6 5 5 5 5 4 5 5 5
10 4 13 10 10 10 7 6 12 15 14 10 14 17 10 9 8 8 9 8 9 8 9 9 9 9 9 8 7 6 6 7 7 7 9 4 7 3 3 3 2 2 3 3 7 7 11 13 14 16 17 17 17 15 14 13 13 12 11 12 14 13 12 12 11 10 11 10 11 10 10 8 9 9 8 7 8 9 8 8 7 8 7 8 7 7 8 7 7 6 6 6 6 5 5 5 5
13 6 9 7 6 10 9 9 5 8 12 13 14 13 8 6 8 9 7 7 7 7 8 9 10 11 9 9 8 8 6 5 8 8 8 9 7 4 4 8 6 2 1 5 8 9 10 14 14 13 15 14 16 16 15 14 15 13 12 13 13 12 12 11 11 11 11 12 11 11 11 11 10 10 9 9 9 9 9 10 9 9 9 9 8 8 8 8 7 6 6 6 6 7 6 6 6
11 7 9 10 8 6 9 10 10 9 10 10 10 10 7 8 6 8 7 7 7 8 8 8 9 10 11 11 11 10 10 9 5 5 6 6 7 7 4 6 6 6 8 10 10 13 16 11 14 16 13 14 14 14 15 13 13 13 13 14 14 13 14 12 13 13 12 12 11 11 10 10 9 10 10 11 10 10 10 10 10 9 9 8 8 8 8 7 7 7 6 6 6 7 7 7 6
3 12 10 4 8 11 10 11 11 12 11 7 12 10 8 8 5 6 7 7 7 7 8 9 10 11 11 12 12 11 10 10 10 8 7 6 8 9 12 11 9 5 8 12 11 11 12 12 14 13 13 12 15 15 13 14 13 12 15 14 14 13 14 13 14 13 13 12 11 11 10 10 11 11 10 11 11 11 10 10 10 9 8 9 8 8 9 8 8 8 8 7 7 7 8 8 7
Wind_Direction
179 196 197 212 229 197 171 199 230 190 224 266 215 189 79 112 141 142 123 150 122 314 171 133 106 64 81 111 92 74 62 60 41 10 112 139 142 145 146 138 135 133 122 122 122 126 124 125 124 118 115 112 108 108 115 119 108 100 107 179 187 135 124 114 94 76 72 71 73 75 74 76 74 70 79 80 80 80 79 88 98 91 82 96 94 84 84 94 97 98 101 104 112 109 108 107 107
181 203 195 190 202 197 213 190 271 175 194 279 350 129 126 141 169 117 125 146 119 149 141 103 85 122 171 108 101 93 70 65 75 91 98 130 140 143 135 138 136 130 123 126 130 128 124 129 123 116 116 120 125 131 129 111 110 148 192 171 139 132 95 81 78 75 70 70 78 82 82 82 83 81 78 77 83 87 89 87 79 83 94 95 109 105 104 97 99 98 105 103 100 103 102 99 100
192 194 176 174 203 188 274 191 261 329 193 165 147 106 148 160 94 106 147 118 121 135 129 112 109 71 75 65 115 87 83 86 101 108 118 133 122 150 139 138 130 126 134 133 135 128 128 126 130 128 128 127 114 111 121 155 172 175 157 145 117 87 82 79 78 80 79 79 81 88 89 88 89 89 84 84 91 92 84 84 91 97 114 122 103 102 105 103 98 108 102 100 99 96 101 107 109
287 210 186 188 216 187 245 179 228 252 156 138 120 167 158 105 110 109 105 110 137 136 119 120 98 82 142 98 90 93 86 88 107 119 126 144 136 151 143 140 139 136 136 130 120 126 126 128 122 121 112 112 128 164 167 156 137 128 112 110 92 85 85 80 80 81 91 95 90 91 97 99 96 100 97 91 92 93 89 86 95 104 109 99 95 86 89 99 103 98 105 105 101 96 94 107 110
253 199 218 224 282 223 260 255 327 237 141 177 113 191 108 104 116 119 123 133 126 121 120 108 101 84 70 77 69 87 101 105 117 124 126 128 133 136 134 142 140 124 120 126 124 123 129 135 140 141 153 161 162 149 131 123 117 122 122 117 102 94 89 90 92 95 100 100 106 100 97 96 91 93 97 95 87 90 96 88 89 98 84 88 94 93 101 107 106 102 99 105 105 103 103 96 109
240 215 202 223 237 56 276 293 218 71 7 318 111 124 108 109 120 126 125 125 125 119 106 116 114 119 85 57 63 92 127 119 123 116 125 131 136 141 134 137 125 113 131 127 127 128 138 145 150 149 143 139 134 125 129 125 134 133 124 115 108 103 102 104 101 101 95 102 106 109 110 109 106 98 96 94 97 95 89 87 83 89 93 92 99 106 93 90 101 103 106 105 102 103 99 95 106
199 212 211 222 261 248 256 231 183 102 66 229 96 119 118 132 128 127 124 128 119 117 121 119 115 114 104 103 87 79 90 116 123 120 137 130 134 135 136 135 121 121 124 128 142 134 126 131 133 133 134 132 120 121 127 134 134 127 120 119 113 108 104 104 107 108 112 117 112 106 105 104 103 105 99 98 98 94 87 85 86 90 98 105 116 123 119 118 109 108 105 104 106 109 111 108 109
221 251 209 217 253 198 244 312 62 68 32 49 109 119 111 114 125 126 129 134 133 139 133 98 79 94 77 83 95 100 105 108 111 126 131 130 133 136 134 128 123 116 119 135 130 119 126 129 130 130 130 120 119 124 133 134 127 125 121 113 113 108 107 111 111 111 112 110 108 108 104 99 102 99 98 97 100 97 87 87 87 86 92 102 108 116 123 126 110 114 113 109 107 104 107 109 112
225 242 256 268 261 318 358 110 98 95 131 109 91 73 101 126 159 136 134 123 126 114 116 127 133 103 108 104 91 97 98 112 120 123 131 134 137 135 135 130 128 125 128 124 123 126 127 128 128 128 126 114 120 127 136 135 120 116 113 117 112 107 106 107 111 112 111 117 111 109 103 99 93 90 94 97 98 94 89 86 84 89 94 97 102 106 107 99 106 110 114 115 113 108 105 106 114
275 262 267 297 358 336 157 126 102 86 98 111 102 109 120 126 122 131 129 135 123 132 106 110 110 109 126 104 117 120 116 120 126 131 130 135 133 136 136 134 132 124 131 131 125 126 123 127 127 125 118 114 124 129 131 130 113 107 110 114 108 106 111 124 124 123 117 109 108 105 100 97 96 97 95 101 98 94 93 89 91 95 93 92 91 89 92 98 98 102 107 112 113 111 111 111 107
254 239 266 291 303 163 196 105 101 112 109 100 99 119 135 137 135 144 136 121 140 118 111 115 116 116 99 87 85 101 120 129 133 133 133 132 135 136 132 129 128 124 123 125 122 123 129 128 126 124 118 119 127 130 119 111 104 109 110 113 110 113 123 121 117 116 117 115 112 106 101 98 101 101 102 99 95 92 89 91 93 94 93 89 91 92 93 97 101 105 105 105 105 109 112 113 117
262 272 225 278 285 76 186 114 112 118 115 125 119 179 124 147 184 141 125 143 130 126 115 141 116 121 111 117 114 126 130 135 133 134 132 133 137 132 129 130 128 124 121 119 124 131 130 132 133 126 113 111 117 116 117 114 110 113 113 114 115 121 123 114 109 110 108 110 109 109 108 107 105 103 102 101 97 97 95 96 94 93 94 96 93 94 96 98 101 102 105 101 99 104 108 113 108
263 299 8 285 252 109 113 116 121 122 124 110 121 237 142 145 169 122 140 124 121 116 84 124 129 129 115 109 116 129 136 134 136 134 136 138 130 133 131 127 128 121 121 124 124 127 134 138 133 132 103 100 105 112 120 118 118 114 113 116 119 117 114 109 108 111 113 115 115 116 111 110 108 108 108 105 101 97 96 99 101 99 95 96 95 95 97 100 103 107 106 101 105 104 108 111 117
260 239 299 309 303 100 41 91 132 126 119 129 127 101 90 182 150 118 136 110 114 116 130 144 125 108 109 119 134 141 133 136 135 137 137 132 134 135 130 128 127 126 126 124 124 136 137 137 130 124 113 114 120 115 115 119 117 117 122 124 126 118 114 112 116 116 115 118 117 112 118 117 117 113 106 105 103 97 101 97 93 97 101 97 95 94 100 109 110 106 101 105 105 105 111 116 119
284 325 283 325 307 89 118 149 140 129 121 141 119 135 148 157 78 71 101 115 109 122 122 123 124 144 140 141 145 144 140 142 141 142 136 137 139 133 131 127 129 127 126 127 135 149 136 128 123 120 112 128 133 132 125 134 124 121 122 121 117 115 110 117 117 116 118 119 120 119 119 119 117 114 112 110 101 102 100 99 100 105 100 100 103 100 97 97 99 101 102 103 103 105 112 112 112
282 285 317 347 316 140 94 122 287 120 141 148 159 134 129 117 118 109 82 197 134 137 163 120 97 163 145 136 140 139 138 140 143 139 135 138 136 132 129 131 132 129 127 129 129 123 125 123 121 123 123 137 139 135 129 129 130 127 121 119 117 113 113 116 117 113 118 120 115 115 117 121 115 114 116 113 103 102 100 101 106 108 108 109 108 109 106 102 104 102 103 106 108 110 114 119 124
256 273 288 176 244 33 69 74 180 122 137 143 140 147 145 135 97 109 164 244 137 125 126 124 121 159 139 132 133 135 138 139 141 138 135 134 141 136 134 134 133 134 127 130 126 117 128 127 117 115 127 127 132 135 131 132 134 129 120 120 113 113 115 119 121 125 121 119 122 122 128 121 118 118 123 115 111 102 109 115 117 106 108 112 109 105 105 106 104 104 106 109 115 121 117 114 115
254 283 319 340 279 101 109 103 108 135 134 137 147 134 152 136 149 135 166 144 126 130 123 126 124 117 124 125 131 134 137 144 144 144 142 144 150 143 146 141 147 141 140 132 132 132 133 131 137 132 130 135 136 131 132 133 131 127 128 126 124 125 128 133 140 127 124 123 132 146 126 118 118 108 99 110 110 118 114 116 123 129 121 120 119 117 116 115 113 118 122 132 130 133 130 119 125
256 138 265 5 41 50 41 45 104 111 131 149 134 101 187 136 140 153 128 128 132 133 131 129 123 123 120 130 134 138 143 146 150 147 148 151 153 150 148 147 147 142 140 141 139 134 136 129 133 132 135 152 144 130 132 137 143 137 132 122 122 137 122 90 110 144 139 137 135 123 114 101 108 121 130 135 123 124 122 121 132 137 118 121 120 129 132 129 127 132 137 138 136 129 124 110 121
240 282 2 266 47 77 75 55 66 134 138 146 129 137 160 151 148 144 141 152 147 152 145 130 129 127 134 135 140 143 148 148 153 151 153 153 152 154 146 151 147 148 146 150 134 136 137 135 135 127 136 135 136 128 130 145 140 138 142 138 139 130 105 88 203 164 153 154 139 121 93 116 125 116 122 127 128 128 127 132 134 138 125 120 124 127 127 119 119 119 132 116 128 155 103 68 346
325 45 257 73 308 23 62 93 95 107 139 122 134 145 144 151 139 135 196 149 157 148 150 141 138 138 138 143 144 148 149 149 156 156 154 153 153 156 151 151 147 148 154 136 136 138 139 136 134 134 140 144 126 122 135 131 140 128 122 130 134 123 134 173 174 152 176 167 149 137 145 150 131 129 139 146 140 128 143 141 124 146 137 136 121 107 100 121 113 102 73 234 197 169 70 76 218
227 169 282 275 271 63 352 84 65 98 112 127 159 147 176 144 181 120 189 137 163 167 150 140 143 142 148 146 147 150 152 155 159 162 158 156 160 151 155 147 146 154 147 141 139 139 146 143 140 141 148 134 135 141 147 143 145 143 149 157 152 127 159 178 219 163 131 90 57 171 141 120 106 132 137 137 149 154 142 111 121 142 138 161 38 88 166 43 33 153 158 284 273 206 201 179 172
260 156 204 248 19 97 332 71 65 138 137 134 137 133 158 189 119 124 137 124 157 181 139 137 144 146 147 145 148 151 155 157 158 163 158 156 158 152 154 147 151 147 157 136 143 147 146 145 140 149 137 123 199 152 154 136 160 148 161 171 157 158 170 177 159 150 139 149 148 181 144 144 151 166 149 161 171 159 185 158 154 145 141 144 167 218 93 136 220 128 97 289 235 182 131 158 134
210 236 231 219 184 338 4 55 164 99 94 110 98 160 169 168 135 161 131 177 171 141 129 138 141 143 147 150 153 151 155 159 159 160 165 155 159 155 152 148 152 143 156 137 149 148 154 144 147 146 140 143 159 131 145 140 145 152 163 176 148 172 302 147 146 141 138 115 122 160 207 162 153 151 166 137 160 190 121 122 133 146 153 163 160 184 132 177 199 150 173 185 197 112 141 132 128
221 235 208 237 252 139 241 29 99 93 130 136 142 164 153 148 120 124 228 136 131 126 130 138 144 146 150 152 155 152 156 160 159 155 164 151 163 151 147 148 151 151 148 146 148 149 157 142 150 147 144 140 138 147 138 136 127 130 134 180 160 171 184 119 116 135 135 128 140 155 180 172 182 163 149 163 171 110 126 127 138 128 131 127 129 102 128 125 162 135 180 179 241 108 130 123 119
223 263 84 271 271 279 322 212 166 142 128 131 157 145 153 128 160 128 151 123 129 131 137 142 147 148 153 157 154 153 161 157 159 154 161 154 155 153 153 156 145 159 147 153 156 149 152 150 152 150 142 143 147 145 133 133 132 141 122 130 136 148 105 115 138 122 115 115 112 114 119 163 200 122 127 140 117 125 127 123 119 121 120 129 123 142 121 147 133 164 100 44 116 172 89 110 129
308 231 263 269 267 273 179 274 126 162 129 157 175 135 156 119 75 111 133 125 133 138 139 144 148 153 153 158 155 156 165 155 159 155 155 159 150 156 155 158 154 147 150 161 151 152 150 155 149 142 140 152 147 134 130 126 136 122 125 135 135 114 121 127 112 118 119 124 110 106 91 97 123 113 111 116 124 136 121 122 114 119 120 113 118 118 102 85 96 122 57 91 96 85 101 107 95
233 264 261 246 246 233 254 246 114 174 128 187 69 164 106 93 86 164 162 139 143 142 142 147 152 152 155 155 155 158 164 155 155 164 159 160 155 162 157 158 158 149 154 167 145 155 159 156 144 146 140 154 145 130 130 133 130 127 134 132 123 122 139 114 114 106 92 91 105 105 98 98 91 103 120 125 132 127 124 118 115 107 103 112 112 100 99 120 118 92 86 77 81 101 97 107 117
248 239 247 227 227 233 200 220 163 120 73 84 315 138 121 153 133 255 138 148 156 147 148 150 154 153 157 154 155 162 160 159 160 169 160 159 159 160 161 158 159 153 152 158 147 163 157 154 139 145 141 145 157 138 135 136 131 137 134 124 124 138 126 125 115 105 104 105 98 96 103 107 102 112 111 118 120 120 110 120 112 104 107 101 86 79 90 107 128 133 125 141 101 105 114 87 51
245 250 262 234 205 229 166 256 147 102 138 164 143 168 139 106 6 220 190 151 170 153 152 155 155 155 157 158 155 164 159 161 169 165 166 157 166 164 161 162 156 154 154 146 153 164 158 144 147 148 140 157 159 136 139 136 143 130 132 129 136 151 121 112 110 114 114 111 108 104 103 101 108 110 116 119 130 118 123 119 109 106 93 92 104 122 127 127 95 109 103 104 136 107 88 96 134
236 230 229 243 214 205 164 199 151 121 158 121 196 244 94 66 287 249 213 173 171 162 158 161 156 158 160 160 159 166 162 167 170 167 167 158 167 168 162 159 159 148 151 157 157 158 160 143 159 143 160 149 163 122 147 136 144 130 133 140 151 125 121 121 130 120 129 120 118 113 107 95 99 99 111 114 120 122 130 121 125 115 100 106 107 72 90 95 127 125 195 100 58 87 92 27 93
226 228 207 224 245 148 182 168 173 110 145 153 249 62 116 160 203 209 219 159 197 166 169 162 160 159 164 161 161 171 161 172 172 167 168 164 169 168 164 157 166 145 157 161 151 163 153 151 168 141 158 148 143 136 135 140 130 131 132 128 129 134 159 120 116 125 128 135 125 118 104 108 99 101 105 107 129 138 118 125 117 102 111 107 85 94 127 133 91 88 86 91 246 141 123 126 115
206 234 215 221 216 176 188 171 153 135 152 145 304 68 134 160 187 174 198 197 186 188 168 165 159 163 164 164 166 168 164 170 174 170 168 168 167 168 164 155 168 149 158 164 152 161 154 142 187 144 158 151 139 142 139 139 139 137 138 152 133 143 129 101 36 71 122 121 128 119 124 126 120 120 117 117 98 140 124 129 118 123 123 95 112 163 130 91 232 97 59 118 140 24 280 105 110
202 203 228 213 208 200 192 137 167 146 161 143 130 143 159 129 193 229 203 212 227 169 165 169 162 162 167 169 167 171 165 169 176 169 168 170 164 169 164 157 163 156 156 163 157 158 161 147 186 142 145 151 140 145 149 150 145 144 152 126 130 136 121 129 144 145 43 119 130 120 133 135 137 139 129 138 129 144 130 127 122 128 116 127 136 149 106 140 142 123 112 126 134 142 252 147 108
202 194 217 205 209 208 193 192 161 160 179 143 164 146 151 162 195 224 207 198 212 166 156 171 162 167 166 174 172 168 170 170 171 173 166 172 163 170 163 161 164 164 161 163 155 152 155 153 160 141 154 153 145 148 150 148 141 170 151 139 141 142 133 60 66 132 150 171 118 124 139 144 142 148 143 159 151 158 140 125 128 131 124 129 146 159 152 135 141 116 151 123 247 299 36 358 56
213 199 216 216 212 201 219 181 144 202 185 155 170 172 143 191 216 214 215 193 149 180 161 144 171 158 179 174 172 171 170 170 168 175 167 172 164 170 161 165 164 169 167 157 156 154 158 154 157 152 160 152 151 148 158 158 159 173 162 150 153 154 155 147 158 132 103 79 113 140 160 145 147 157 157 153 178 148 143 140 133 144 134 150 171 183 141 152 128 126 130 152 186 171 214 249 168
272 228 210 207 218 206 192 165 151 201 217 155 201 143 153 184 199 182 235 143 162 161 153 192 129 188 171 176 173 171 172 171 167 175 168 174 165 170 163 165 165 171 164 159 163 157 164 159 161 166 160 159 157 158 168 168 165 170 165 167 157 154 153 152 177 138 124 187 154 145 160 143 151 161 156 161 161 154 145 143 137 143 160 149 157 157 103 112 147 179 136 163 178 174 209 207 83
249 238 207 199 221 217 170 165 153 218 211 184 172 151 188 163 162 187 216 219 169 164 164 161 167 180 176 175 170 175 169 169 167 172 169 172 173 171 165 168 166 170 168 163 170 159 162 161 166 165 167 164 163 167 171 174 169 173 169 172 155 160 150 175 166 123 272 151 148 142 168 142 155 159 160 161 157 162 157 146 149 155 156 146 168 106 113 128 149 196 162 183 239 221 121 166 85
229 248 222 216 208 220 197 118 212 186 232 187 187 191 162 158 196 145 157 182 213 148 232 126 150 167 217 187 161 176 170 172 170 172 170 174 174 171 169 168 172 171 169 170 171 163 166 164 164 172 170 171 167 169 171 175 174 174 180 152 185 148 156 179 135 187 157 150 151 156 142 144 160 158 160 164 162 169 162 152 161 158 155 150 161 162 157 169 181 191 184 187 187 172 242 78 121
221 232 217 215 206 221 163 204 202 208 231 192 187 216 178 151 162 140 164 202 155 146 159 168 229 180 192 152 166 185 174 173 171 172 173 174 173 172 170 172 173 170 170 170 172 168 169 167 166 173 170 175 170 164 180 168 170 175 174 161 164 152 159 138 111 127 130 130 150 142 155 152 170 165 167 167 167 163 162 171 161 159 154 168 170 170 170 176 175 186 187 160 230 179 121 156 119
219 224 227 215 205 225 253 161 189 211 223 294 127 236 174 158 152 165 186 189 162 149 166 174 187 148 70 327 2 198 177 177 174 175 173 175 174 172 173 173 173 173 173 171 176 172 172 171 168 171 171 180 170 163 179 163 166 168 174 158 153 120 139 152 162 165 157 146 151 164 151 162 169 171 165 171 159 159 166 170 159 161 160 172 178 167 180 175 180 176 181 173 225 299 131 121 135
213 224 242 229 211 223 205 137 209 194 212 194 225 199 221 148 180 159 164 172 158 147 157 156 155 154 117 64 219 226 166 179 183 178 177 175 174 170 173 174 177 174 174 173 180 173 173 170 167 172 171 177 176 164 177 168 164 170 168 169 170 164 163 166 176 178 167 160 184 150 141 163 166 165 170 175 158 162 166 164 169 165 168 171 188 170 181 160 188 195 163 204 169 47 18 154 139
224 197 219 245 242 223 197 184 227 230 221 186 207 248 191 188 104 84 86 147 131 181 145 160 163 157 117 95 172 206 188 178 182 196 183 178 175 173 173 177 178 176 174 173 180 173 173 167 168 173 172 176 178 167 176 174 169 173 178 177 180 181 175 168 181 172 167 153 205 132 142 156 168 171 164 177 158 167 166 166 173 181 166 172 183 179 180 189 178 199 155 199 162 90 110 218 182
226 172 185 211 269 259 203 201 206 240 214 162 196 220 186 158 112 98 75 53 55 48 337 204 150 164 170 167 183 184 189 179 173 187 205 187 180 178 177 178 180 179 174 173 179 171 173 166 169 174 173 176 179 169 179 181 174 178 181 191 187 184 183 167 169 159 176 183 118 143 151 157 164 178 160 167 169 166 176 171 178 190 178 173 180 184 192 186 170 180 168 162 135 123 119 270 355
246 78 197 208 207 204 228 237 227 251 241 177 190 216 196 191 126 123 92 80 81 132 128 334 63 177 177 169 162 181 181 181 187 188 212 195 185 184 181 180 184 182 176 176 180 168 170 167 170 174 173 178 178 174 179 182 183 180 182 188 187 194 178 175 164 169 148 150 148 143 162 150 162 169 165 166 178 165 179 178 181 190 188 176 184 195 185 181 175 173 172 174 169 147 214 103 294
112 5 17 227 223 222 224 223 226 232 234 222 211 186 213 152 162 124 146 141 162 155 97 127 195 180 199 176 154 174 188 187 204 195 199 206 185 189 185 182 186 188 178 177 176 170 169 168 171 174 175 178 176 176 181 181 186 183 186 191 189 181 189 177 175 166 156 169 163 150 155 153 168 170 169 170 172 177 179 180 185 187 190 181 193 191 184 170 181 186 183 189 174 186 179 175 189
133 148 202 205 192 210 213 235 233 232 230 221 229 208 174 149 307 158 199 105 78 87 116 85 161 147 150 203 178 174 206 179 192 204 209 198 200 192 186 187 187 190 182 178 180 176 171 172 172 175 175 178 176 178 181 181 185 185 190 194 189 185 189 179 171 172 160 168 174 171 172 173 176 177 175 172 179 179 178 187 189 179 189 167 203 175 185 185 185 184 191 190 188 193 190 191 237
216 192 208 168 195 200 203 215 216 229 221 214 222 220 154 166 164 111 92 110 71 32 72 54 35 46 138 169 198 177 187 200 181 208 197 198 196 194 192 188 188 190 188 180 184 181 174 175 175 175 176 179 178 179 182 184 185 187 192 192 192 192 187 181 187 167 178 177 180 181 177 178 188 176 188 173 177 185 170 189 193 172 188 179 192 190 197 197 197 181 184 188 195 195 207 220 246
199 215 218 191 173 193 183 203 211 215 224 200 213 221 214 144 124 113 95 79 89 68 40 41 40 66 86 137 167 184 174 195 216 191 265 198 179 226 196 182 190 191 190 184 187 183 178 176 176 177 176 179 179 179 182 185 186 189 192 191 195 194 191 193 187 189 188 188 187 183 178 183 187 183 191 183 190 176 173 177 190 172 181 192 193 187 203 210 204 188 186 191 194 195 203 206 209
212 219 202 212 177 191 197 200 213 215 228 231 205 208 219 119 119 109 100 69 62 64 75 47 54 64 74 80 130 176 134 43 354 347 69 39 315 228 186 183 188 189 193 187 190 189 181 179 178 181 178 178 178 181 180 185 189 190 189 193 194 191 198 194 193 197 191 193 192 193 191 188 187 191 194 193 190 177 177 176 179 180 173 186 185 184 197 200 208 201 186 197 202 197 208 208 220
214 221 216 225 206 193 198 200 196 211 205 213 209 210 135 152 109 118 111 93 71 62 64 76 60 67 68 77 94 116 105 171 265 233 184 141 204 269 218 178 185 191 195 189 191 192 183 181 179 182 180 180 179 181 182 185 187 189 188 194 192 193 197 194 201 199 195 197 199 197 196 194 194 193 194 185 197 185 186 172 180 183 174 181 187 196 200 200 197 216 195 197 214 183 207 209 208
198 212 238 220 223 199 234 191 208 192 206 192 209 194 124 115 136 114 113 104 83 78 68 53 46 62 73 81 90 106 117 146 186 219 248 157 198 224 206 186 194 189 198 195 192 192 188 184 181 184 183 181 181 182 185 187 188 187 190 190 193 196 192 196 197 201 199 198 198 199 196 200 196 186 198 187 186 190 188 182 181 191 184 182 189 195 201 200 196 210 205 196 209 197 190 199 219
168 211 214 229 231 256 232 233 208 213 212 195 120 102 101 123 143 118 115 106 102 83 69 61 60 52 49 78 89 94 108 78 61 115 207 163 200 225 187 200 197 198 209 207 200 194 190 184 182 185 184 184 183 184 186 188 188 190 191 190 194 193 194 198 196 197 202 197 196 202 195 197 197 192 192 191 185 188 188 195 195 195 188 193 191 196 197 200 193 206 204 201 212 208 186 199 214
261 202 205 212 11 280 280 241 201 207 206 184 160 153 151 170 136 143 123 116 85 74 67 58 51 51 62 54 63 78 64 60 47 13 356 142 202 195 195 191 197 200 201 211 209 194 193 190 187 186 186 184 184 186 189 188 188 192 190 193 195 196 198 200 201 193 201 197 200 200 201 195 200 196 200 187 188 184 189 194 197 207 195 201 191 201 196 200 195 209 206 210 208 212 198 200 210
283 310 356 253 189 229 234 290 219 203 202 182 145 150 167 188 130 160 138 116 90 78 67 62 55 55 52 57 57 61 84 59 44 39 1 24 54 34 167 213 212 259 169 92 309 236 202 202 197 195 191 187 187 189 190 187 190 192 192 196 194 197 200 202 204 200 195 204 203 196 209 197 197 200 193 200 188 192 189 190 200 202 202 205 202 206 194 202 201 213 209 214 196 205 205 208 210
230 274 233 243 267 212 213 219 256 225 208 205 148 167 133 66 125 109 118 89 88 82 75 62 60 56 55 50 46 43 50 71 62 54 23 22 86 133 202 194 181 161 235 148 209 236 225 217 212 205 191 192 191 193 184 190 190 193 194 191 195 197 199 203 203 203 201 201 207 204 201 203 201 200 195 194 201 199 195 195 196 207 203 201 200 207 203 199 208 209 216 218 193 201 211 211 219
205 234 221 197 240 269 236 213 230 222 225 209 159 161 121 106 102 125 118 104 96 99 86 76 59 58 57 53 48 44 41 34 44 62 55 28 27 47 41 188 146 151 199 218 201 216 217 203 219 207 194 194 195 199 191 192 190 196 193 190 194 195 197 199 203 201 208 204 202 211 204 208 196 207 199 194 202 203 201 202 208 200 212 200 200 204 204 201 202 210 220 219 217 195 210 212 216
289 206 221 216 198 224 207 232 224 240 230 220 201 143 124 121 154 140 126 120 109 89 97 81 71 64 56 55 55 49 44 40 40 39 57 54 16 22 31 41 134 157 215 203 221 218 228 216 187 213 196 211 203 197 203 194 193 195 195 193 196 194 196 199 202 201 205 205 205 201 209 207 203 201 210 202 199 205 204 204 206 207 212 213 196 205 209 206 205 207 214 210 215 210 205 218 216